STARLINK-1260 (45404 NORAD) Tracking and Keplerian Element Data

This shows tracking and keplerian element data for the satellite.

Feedback or suggestion? Click here.




ElementValue
Catalog45404
NameSTARLINK-1260
Epoch Orbit1739
Epoch Day187.50002315
Epoch Year2020
RAAN83.7655
Inclination52.9981
Eccentricity0.0001333
Argument of Perigee68.5761
Mean Anonmoly348.7616
Mean Motion15.17375884
Decay Rate-0.0106553
L11 45404U 20019AW 20187.50002315 -.01065530 00000-0 -56837-1 0 9995
L22 45404 52.9981 83.7655 0001333 68.5761 348.7616 15.17375884 17394

Live tracking and technical data element details for STARLINK-1260 (NORAD 45404). STARLINK-1260 can be tracked NOW for your location showing map with azimuth and elevation plus other details from your city location.

Track the satellite on the map from your city or location and see movement details for azimuth, elevation, latitude, longitude, range, height, and movement on the map or in text.







IsCatalogInMostPopularTable: catalog: 45404, numindb: 23
Update: records affected: 1



GetName: 45404 STARLINK-1260

Hit Count: updated at: Mon, 06 Jul 2020 05:45:18 GMT